Voltar ao catálogo

COSMOS 2253

AtivoNavegaçãoPO
NORAD 22688·PAYLOAD·🇷🇺 Russia

Lançado Jun 24, 1993 de Plesetsk Cosmodrome

Loading…

Próximas Passagens (próximas 24 horas)

TLE

AtualizadoSource: Space-Track

Época: Sep 14, 2026, 19:43 UTC

1 22688U 93038B   26257.82219379  .00000024  00000-0  75497-4 0  9994
2 22688  82.5893 200.2813 0011810 159.4326 200.7243 12.61603407529802

Acompanhe COSMOS 2253 em tempo real com AllMySat

Download on the App Store